Location: Kosice
(0.0000°N, 21.2500°E)
Time: 06:05:33
(UTC+01:00)

Cosmos-2242 - Pass Details

Date: 24 January 2021
Orbit: 591 x 616 km, 82.5° (Epoch: 04 March)

Event Time Altitude Azimuth Distance (km) Brightness Sun altitude
Exits shadow 19:03:28 - 359° (N) 2,756 6.2 -18.0°
Reaches altitude 10° 19:05:27 10° 1° (N) 1,942 5.4 -18.5°
Maximum altitude 19:09:45 76° 86° (E) 629 2.9 -19.5°
Drops below altitude 10° 19:14:05 10° 172° (S) 1,966 5.8 -20.5°
Sets 19:16:19 0° 173° (S) 2,875 6.7 -21.0°
